SCP
0 0 0 0 0 0 0 0 0 0 0 -0 -0 0 0 0 0 0 0 0 0 0 0 0 0 0 0 0 0 0 0 0 0 0 0 0 0 0
0 0 0 0 0 0 0 0 0 0 0 0 -0 0 0 0 0 0 0 0 0 0 0 0 0 0 0 0 0 0 0 0 0 0 0 0 0 0
0 0 0 0 0 0 0 0 0 0 0 0 -0 0 0 0 0 0 0 0 0 0 0 0 0 0 0 0 0 0 0 0 0 0 0 0 0 0
0 0 0 0 0 0 0 0 0 0 0 0 0 0 0 0 0 0 0 0 0 0 0 0 0 0 0 0 0 0 0 0 0 0 0 0 0 0
-0 -0 -0 -0 0 0 0 0 0 0 0 0 0 0 0 0 0 0 0 0 0 0 0 0 0 0 0 0 0 0 0 0 0 0 0 0 0 0
-0 -0 -0 -0 0 0 0 0 0 0 0 0 0 0 0 0 0 0 0 0 0 0 0 0 0 0 0 0 0 0 0 0 0 0 0 0 0 0
0 0 0 0 0 0 0 0 0 0 0 0 0 0 0 0 0 0 0 0 0 0 0 0 0 0 0 0 0 0 0 0 0 0 0 0 0 0
0 0 0 0 0 0 0 0 0 0 0 0 0 0 0 0 0 0 0 0 0 0 0 0 0 0 0 0 0 0 0 0 0 0 0 0 0 0
0 0 0 0 0 0 0 0 0 0 0 0 0 0 0 0 0 0 0 0 0 0 0 0 0 0 0 0 0 0 0 0 0 0 0 0 0 0
0 0 0 0 0 0 0 0 0 0 0 0 0 0 0 0 0 0 0 0 0 0 0 0 0 0 0 0 0 0 0 0 0 0 0 0 0 0
0 0 0 0 0 0 0 0 0 0 0 0 0 0 0 0 0 0 0 0 0 0 0 0 0 0 0 0 0 0 0 0 0 0 0 0 0 0
0 0 0 0 0 0 0 0 0 0 0 0 0 0 0 0 0 0 0 0 0 0 0 0 0 0 0 0 0 0 0 0 0 0 0 0 0 0
0 0 0 0 0 0 0 0 0 0 0 0 0 0 0 0 0 0 0 0 0 0 0 0 0 0 0 0 0 0 0 0 0 0 0 0 0 0
0 0 0 0 0 0 0 0 0 0 0 0 0 0 0 0 0 0 0 0 0 0 0 0 0 0 0 0 0 0 0 0 0 0 0 0 0 0
0 0 0 0 0 0 0 0 0 0 0 0 0 0 0 0 0 0 0 0 0 0 0 0 0 0 0 0 0 0 0 0 0 0 0 0 0 0
0 0 0 0 0 0 0 0 0 0 0 0 0 0 0 0 0 0 0 0 0 0 0 0 0 0 0 0 0 0 0 0 0 0 0 0 0 0
0 0 0 0 0 0 0 0 0 0 0 0 0 0 0 0 0 0 0 0 0 0 0 0 0 0 0 0 0 0 0 0 0 0 0 0 0 0
0 0 0 0 0 0 0 0 0 0 0 0 0 0 0 0 0 0 0 0 0 0 0 0 0 0 0 0 0 0 0 0 0 0 0 0 0 0
0 0 0 0 0 0 0 0 0 0 0 0 0 0 0 0 0 0 0 0 0 0 0 0 0 0 0 0 0 0 0 0 0 0 0 0 0 0
0 0 0 0 0 0 0 0 0 0 0 0 0 0 0 0 0 0 0 0 0 0 0 0 0 0 0 0 0 0 0 0 0 0 0 0 0 0
0 0 0 0 0 0 0 0 0 0 0 0 0 0 0 0 0 0 0 0 0 0 0 0 0 0 0 0 0 0 0 0 0 0 0 0 0 0
0 0 0 0 0 0 0 0 0 0 0 0 0 0 0 0 0 0 0 0 0 0 0 0 0 0 0 0 0 0 0 0 0 0 0 0 0 0
0 0 0 0 0 0 0 0 0 0 0 0 0 0 0 0 0 0 0 0 0 0 0 0 0 0 0 0 0 0 0 0 0 0 0 0 0 0
Wind_Speed
4 3 2 1 2 2 2 3 3 2 1 2 2 2 1 1 2 2 2 4 5 6 6 7 7 8 8 8 8 8 8 8 8 8 9 10 11 12
3 4 3 2 2 2 2 2 2 3 2 2 2 2 2 2 2 2 3 6 6 7 7 7 8 8 8 8 8 9 9 9 9 9 9 9 9 10
3 4 3 3 2 2 2 2 2 2 2 2 2 2 2 3 3 3 3 3 4 7 8 8 8 8 8 8 8 9 9 10 10 10 10 10 10 10
4 4 4 3 3 2 2 2 2 3 3 3 2 2 3 3 3 4 4 4 4 7 8 8 8 7 8 8 8 9 9 10 10 10 11 11 11 11
6 6 5 5 4 3 3 3 2 3 3 3 3 2 3 2 3 3 4 4 5 5 7 7 7 8 8 9 9 9 10 10 10 11 11 11 11 12
6 6 6 6 6 5 4 4 3 3 3 3 3 3 3 3 2 3 4 3 4 5 5 6 7 8 9 10 10 11 11 11 11 11 11 12 12 12
5 6 6 8 9 7 5 5 5 4 3 4 4 3 4 3 4 3 4 5 5 4 4 4 4 5 7 8 10 11 12 11 11 11 12 12 12 13
6 6 6 7 9 10 10 9 8 7 6 5 4 5 7 6 4 4 4 4 5 3 3 5 4 7 7 7 10 12 13 12 12 12 12 12 13 13
7 6 5 6 7 6 7 9 9 11 11 7 7 8 7 6 5 6 6 6 7 5 3 7 6 8 8 8 12 13 14 13 13 13 13 13 13 13
7 7 7 6 6 6 5 6 6 7 8 8 9 9 9 7 6 6 7 7 7 6 5 6 7 8 8 8 11 14 14 14 14 14 13 13 13 13
7 7 7 7 8 7 6 6 7 7 7 9 11 11 12 12 8 5 5 5 7 6 4 5 6 7 7 8 9 12 13 14 14 14 14 14 14 13
5 5 8 8 7 7 6 6 7 7 5 5 6 7 8 9 9 8 7 7 6 6 4 5 5 5 6 5 6 6 7 10 13 14 15 15 14 9
5 4 4 7 8 8 7 6 8 7 5 5 6 6 6 6 6 6 7 7 8 8 6 5 5 5 6 7 6 7 8 8 8 9 12 14 14 11
5 4 4 5 6 6 5 6 8 6 4 4 5 6 6 6 6 6 7 8 9 11 10 8 7 8 8 10 9 8 8 8 8 9 9 10 12 14
4 4 4 4 4 4 5 7 5 4 4 4 5 6 6 6 6 5 6 7 9 10 10 10 10 9 9 10 10 9 9 9 8 9 9 9 9 8
3 3 3 3 3 3 4 3 3 4 4 5 6 6 5 5 5 5 5 5 6 8 8 9 10 10 9 11 10 11 10 9 8 8 9 9 9 9
2 1 1 1 2 2 3 3 3 3 4 5 5 6 6 6 6 5 4 5 6 8 9 6 6 8 11 10 10 11 11 11 11 10 8 10 10 9
3 2 3 3 3 3 4 4 3 4 4 5 5 5 5 6 7 6 5 6 7 8 8 8 6 6 7 8 11 12 11 11 10 9 9 10 12 10
3 3 3 4 4 4 4 4 5 5 4 5 5 6 6 6 6 7 6 6 7 8 8 7 6 7 10 12 8 10 10 10 10 10 9 10 12 11
2 3 4 4 4 4 4 5 5 5 5 5 6 6 6 6 7 7 7 8 8 8 9 7 7 7 9 11 11 10 11 11 10 11 10 10 10 12
3 3 4 4 4 4 4 5 6 6 6 6 6 6 6 6 7 7 7 9 9 8 9 9 8 9 9 8 9 10 10 11 12 11 10 10 10 9
3 3 3 4 4 4 4 5 5 6 6 6 6 6 6 6 8 9 8 8 8 8 10 9 9 7 7 9 12 13 13 11 10 15 17 15 9 8
3 3 3 4 4 4 4 5 7 6 6 6 6 6 7 7 7 7 8 8 8 9 9 9 8 7 8 9 11 11 14 13 10 9 9 12 18 20
Wind_Direction
138 134 123 124 127 131 135 144 146 160 263 298 301 314 309 281 289 285 279 288 294 294 292 290 290 289 287 284 282 282 283 284 283 280 277 273 270 264
145 139 132 132 128 126 133 134 140 153 202 253 266 292 301 292 281 275 275 290 292 293 292 290 288 286 283 280 278 278 277 277 277 275 272 271 270 269
156 159 162 152 146 146 142 146 152 155 192 255 259 278 283 286 300 293 281 281 285 286 289 289 288 287 286 283 279 276 274 273 272 271 269 268 267 267
180 175 184 171 171 174 172 178 185 188 194 236 260 268 267 277 284 287 286 279 273 277 278 279 281 282 282 280 279 277 275 273 271 269 267 267 266 265
189 192 197 184 196 196 196 201 205 202 203 224 256 260 269 275 287 285 283 282 279 275 274 272 273 276 277 277 276 274 272 271 269 267 265 264 264 263
201 203 203 201 207 205 207 213 211 211 212 228 254 264 266 266 258 272 286 279 284 287 279 274 270 273 273 273 273 271 270 269 268 266 264 262 261 260
212 215 216 217 217 211 213 214 207 216 223 233 251 262 266 263 259 256 273 288 281 265 277 277 275 277 277 272 269 267 267 267 265 264 262 260 258 256
216 223 228 230 230 227 228 223 210 215 226 230 242 251 262 259 259 257 265 283 285 254 258 279 272 276 276 272 265 263 264 264 263 262 261 260 258 255
217 223 233 232 224 231 238 237 232 229 222 225 243 251 257 253 252 263 256 255 264 268 262 280 274 274 275 271 262 261 261 262 263 261 261 262 260 258
221 220 226 237 231 225 238 250 252 248 238 233 240 250 253 254 243 253 265 268 266 260 232 266 277 275 279 276 265 259 258 260 261 259 259 260 259 257
228 226 226 236 240 229 228 246 262 267 256 243 243 253 259 260 253 254 255 257 273 273 218 239 268 277 278 274 269 260 259 261 261 261 260 258 256 256
233 231 228 231 240 233 224 233 254 265 275 282 273 271 268 267 252 234 239 251 265 274 237 222 260 274 281 266 269 272 270 264 260 260 258 257 256 256
229 231 228 225 238 241 227 229 245 262 276 276 280 281 279 271 262 243 229 234 249 256 250 229 260 262 263 279 279 274 271 272 271 266 258 254 252 244
226 229 224 226 238 246 240 243 255 263 261 267 272 275 277 276 274 269 255 245 243 253 261 247 254 262 270 276 279 277 272 267 266 267 268 263 256 245
221 223 226 231 239 244 246 252 250 237 240 253 262 267 267 270 277 280 275 263 259 257 258 252 251 260 258 266 274 276 280 276 263 260 262 262 262 257
222 224 225 228 232 249 258 250 236 231 234 251 262 268 273 277 279 280 283 288 285 282 267 254 252 253 259 261 265 272 271 271 270 264 265 267 262 254
171 186 212 220 231 239 245 249 239 230 234 242 255 268 277 281 281 280 273 276 273 285 292 288 266 256 255 262 268 268 271 270 268 269 266 268 265 259
155 214 231 235 242 249 254 257 250 246 248 251 259 265 273 278 283 282 272 272 277 281 285 291 296 293 282 263 239 260 268 269 271 267 262 266 270 265
177 226 240 245 248 250 252 254 260 262 257 259 264 270 274 277 280 282 282 281 280 282 284 286 283 282 287 290 274 231 257 274 276 273 266 261 268 271
216 235 246 250 253 257 261 263 269 274 273 270 270 273 274 276 279 279 280 280 283 286 287 284 277 273 275 285 290 283 252 261 271 273 274 271 268 270
236 243 251 258 263 265 268 271 273 273 273 272 272 271 271 272 274 275 276 277 278 281 283 285 284 277 278 278 275 275 276 252 249 262 273 274 274 271
257 258 263 265 266 269 274 277 278 277 279 276 274 272 269 267 271 274 275 276 276 277 283 286 290 288 277 273 277 284 288 287 266 251 249 248 257 263
270 270 269 270 269 271 274 278 280 279 277 277 276 275 275 272 272 273 275 277 280 282 285 288 290 284 278 275 278 280 284 288 288 285 275 254 242 248